Regional Weather Roundup
Issued by NWS Little Rock, AR

Home | Current Version | Previous Version | Graphics & Text | Print | Product List | Glossary On
Versions: 1 2 3 4 5 6 7 8 9 10 11 12 13 14 15 16 17 18 19 20 21 22 23 24 25 26 27 28 29 30 31 32 33 34 35 36 37 38 39 40 41 42 43 44 45 46 47 48 49 50
445
ASUS44 KLZK 130905
RWRLZK

WEATHER ROUNDUP FOR ARKANSAS
NATIONAL WEATHER SERVICE LITTLE ROCK AR
300 AM CST SAT FEB 13 2016

NOTE: "FAIR" INDICATES FEW OR NO CLOUDS BELOW 12,000 FEET WITH NO
SIGNIFICANT WEATHER AND/OR OBSTRUCTIONS TO VISIBILITY.

ARZ001-003-010-029-131000-
NORTHWEST ARKANSAS

CITY           SKY/WX    TMP DP  RH WIND       PRES   REMARKS
FAYETTEVILLE   CLOUDY    31  17  56 VRB6      30.48R WCI  25
FORT SMITH     CLOUDY    42  23  46 NE9       30.45S
HARRISON       CLOUDY    28   9  44 N10       30.49R WCI  19
BENTONVILLE    CLOUDY    30  10  43 NE10      30.48F WCI  21
ROGERS         CLOUDY    29  14  53 NE13      30.47F WCI  19
SILOAM SPGS    CLOUDY    30  12  47 NE9       30.48S WCI  22
HIGHFILL       CLOUDY    31  16  54 NE8       30.47  WCI  23
$$

ARZ004-005-016-131000-
NORTH CENTRAL ARKANSAS

CITY           SKY/WX    TMP DP  RH WIND       PRES   REMARKS
BATESVILLE     CLOUDY    32  12  43 NW7       30.53R WCI  26
FLIPPIN        CLOUDY    30   7  37 N6        30.50R WCI  24
MTN HOME       CLOUDY    27   6  41 N8        30.50R WCI  19
$$

ARZ040-041-131000-
WEST CENTRAL ARKANSAS

CITY           SKY/WX    TMP DP  RH WIND       PRES   REMARKS
MENA           CLOUDY    45  32  61 NE5       30.39F
MOUNT IDA      CLOUDY    44  25  47 VRB5      30.39F
$$

ARZ009-017-025-026-028-131000-
NORTHEAST ARKANSAS

CITY           SKY/WX    TMP DP  RH WIND       PRES   REMARKS
CORNING        FAIR      27   9  46 N9        30.55R WCI  17
JONESBORO      CLEAR     28  15  58 NE6       30.51R WCI  22
NEWPORT        CLOUDY    31  17  56 N10       30.53R WCI  22
WALNUT RIDGE   PTCLDY    28  10  47 NE13      30.53R WCI  18
BLYTHEVILLE    CLEAR     27  15  61 N17       30.52R WCI  14
$$

ARZ022-023-033-042-044-131000-
CENTRAL ARKANSAS

CITY           SKY/WX    TMP DP  RH WIND       PRES   REMARKS
LITTLE ROCK    CLOUDY    40  21  46 NE10      30.48S
N LITTLE ROCK    N/A     38  24  57 E10       30.48S
JACKSONVILLE   CLOUDY    38  20  47 NE8       30.47S
SEARCY         CLOUDY    36  14  41 NE14      30.51R
HOT SPRINGS    CLOUDY    43  24  47 E13       30.44S
RUSSELLVILLE   CLOUDY    39  21  48 N7        30.47R
CLINTON        MOCLDY    36  16  44 CALM      30.50R
$$

ARZ036-131000-
EAST ARKANSAS

CITY           SKY/WX    TMP DP  RH WIND       PRES   REMARKS
WEST MEMPHIS   CLEAR     30  16  56 NE14      30.48S WCI  19
$$

ARZ050-053-066-070-073-131000-
SOUTHWEST ARKANSAS

CITY           SKY/WX    TMP DP  RH WIND       PRES   REMARKS
ARKADELPHIA    FAIR      46  27  48 NE9       30.45R
CAMDEN         CLOUDY    45  25  45 NE7       30.43S
TEXARKANA      CLEAR     46  30  53 E6        30.40R
EL DORADO      CLEAR     42  30  62 NE6       30.42R
DE QUEEN       CLOUDY    40  32  73 CALM      30.39S
$$

ARZ056-057-069-131000-
SOUTHEAST ARKANSAS

CITY           SKY/WX    TMP DP  RH WIND       PRES   REMARKS
PINE BLUFF     CLOUDY    40  25  55 NE12      30.46F
STUTTGART      CLEAR     36  21  55 NE10      30.48S
MONTICELLO     CLOUDY    43  27  53 NE9       30.44R

$$






USA.gov is the U.S. government's official web portal to all federal, state and local government web resources and services.